LiveATC.Net - Listen to live air traffic control over the Internet!


ICAO: CYWG  IATA: YWG   Airport: Winnipeg James Armstrong Richardson International Airport
City: Winnipeg   State/Province: Manitoba
Country: Canada   Continent: North America
CYWG METAR Weather: CYWG 020400Z 14013KT 10SM -SHRA SCT020 OVC039 04/01 A2995 RMK SF3SC5 SLP153
CYWG Flight Activity (FlightAware)

CYWG Del/Gnd/Twr/App/Dep
Feed Status: UP   Listeners: 4
Listen in your browser - HTML5 player (in browser, HTML5)
Click here to listen with your own player (launches your MP3 player)
Archive Access: CYWG Del/Gnd/Twr/App/Dep
FacilityFrequency
Winnipeg Arrival/Approach119.500
Winnipeg Clearance121.300
Winnipeg Departure119.900
Winnipeg Ground121.900
Winnipeg Tower118.300
Winnipeg Tower125.400
Winnipeg Tower126.900

NOTICE

Unauthorized use prohibited. See LiveATC.net Terms of Service


Airport/ARTCC Code
Frequency Search
(e.g., 124.400, 128.75)
Site-wide search
 


Browse Feeds
Top 50 Feeds
Coverage Map
Bad Weather Areas

LiveATC FAQ
Offer LiveATC feed
Contact LiveATC.net
Press Inquiries

LiveATC on iPhone
LiveATC on Android

Windows Phone
Windows 8/10

LiveATC Mobile
(Mobile browser)

ATC Audio Archives
Interesting Recordings

LiveATC Forums


Home Page
About LiveATC.net
Make a Donation
Terms of Use
Privacy Policy

Canadian Air Freqs

AIRMETs/SIGMETs

FAA Airport Status
Nat'l Airspace Status
Arrival Demand Charts


Server Software By:
Icecast.org
Liquidsoap